| time (UTC) | temp F | wind direction | speed MPH | gust MPH | rain 1hr in | rain 24hr in | rain mn in | humidity % | barometer mb |
| 20260901115055 | 72 | 205 | 0.0 | 0.0 | 0.00 | 0.00 | 0.00 | 73 | 1017.0 |
| 20260901114333 | 72 | 205 | 0.0 | 3.0 | 0.00 | 0.00 | 0.00 | 73 | 1016.8 |
| 20260901114032 | 72 | 175 | 0.0 | 3.0 | 0.00 | 0.00 | 0.00 | 73 | 1016.8 |
| 20260901113732 | 72 | 290 | 0.0 | 0.0 | 0.00 | 0.00 | 0.00 | 73 | 1016.9 |
| 20260901113425 | 71 | 290 | 0.0 | 2.0 | 0.00 | 0.00 | 0.00 | 73 | 1017.0 |
| 20260901113123 | 71 | 293 | 0.0 | 2.0 | 0.00 | 0.00 | 0.00 | 72 | 1017.1 |
| 20260901112810 | 71 | 252 | 0.0 | 0.0 | 0.00 | 0.00 | 0.00 | 72 | 1017.1 |
| 20260901112503 | 71 | 213 | 0.0 | 1.0 | 0.00 | 0.00 | 0.00 | 72 | 1017.1 |
| 20260901110859 | 71 | 261 | 0.0 | 0.0 | 0.00 | 0.00 | 0.00 | 71 | 1016.9 |
| 20260901110550 | 71 | 261 | 0.0 | 0.0 | 0.00 | 0.00 | 0.00 | 71 | 1017.0 |
| 20260901110239 | 71 | 261 | 0.0 | 0.0 | 0.00 | 0.00 | 0.00 | 71 | 1017.0 |
| 20260901105940 | 71 | 261 | 0.0 | 0.0 | 0.00 | 0.00 | 0.00 | 71 | 1016.9 |
| 20260901105631 | 71 | 261 | 0.0 | 0.0 | 0.00 | 0.00 | 0.00 | 71 | 1017.0 |
| 20260901105331 | 71 | 261 | 0.0 | 0.0 | 0.00 | 0.00 | 0.00 | 71 | 1016.9 |
| 20260901105035 | 71 | 261 | 0.0 | 0.0 | 0.00 | 0.00 | 0.00 | 71 | 1016.8 |
| 20260901104732 | 71 | 261 | 0.0 | 0.0 | 0.00 | 0.00 | 0.00 | 71 | 1016.8 |
| 20260901104433 | 71 | 261 | 0.0 | 0.0 | 0.00 | 0.00 | 0.00 | 71 | 1016.8 |
| 20260901104125 | 71 | 261 | 0.0 | 0.0 | 0.00 | 0.00 | 0.00 | 71 | 1016.9 |
| 20260901103816 | 71 | 267 | 0.0 | 0.0 | 0.00 | 0.00 | 0.00 | 71 | 1016.9 |
| 20260901102212 | 71 | 292 | 0.0 | 0.0 | 0.00 | 0.00 | 0.00 | 71 | 1016.8 |
| 20260901101432 | 71 | 296 | 0.0 | 1.0 | 0.00 | 0.00 | 0.00 | 71 | 1016.9 |
| 20260901101130 | 71 | 256 | 0.0 | 0.0 | 0.00 | 0.00 | 0.00 | 71 | 1016.8 |
| 20260901100827 | 71 | 256 | 0.0 | 1.0 | 0.00 | 0.00 | 0.00 | 71 | 1016.8 |
| 20260901100111 | 71 | 268 | 0.0 | 0.0 | 0.00 | 0.00 | 0.00 | 71 | 1016.8 |
| 20260901095808 | 71 | 268 | 0.0 | 0.0 | 0.00 | 0.00 | 0.00 | 71 | 1016.8 |
| 20260901095511 | 71 | 268 | 0.0 | 0.0 | 0.00 | 0.00 | 0.00 | 71 | 1016.8 |
| 20260901095159 | 71 | 271 | 0.0 | 0.0 | 0.00 | 0.00 | 0.00 | 71 | 1016.7 |
| 20260901094426 | 71 | 209 | 0.0 | 1.0 | 0.00 | 0.00 | 0.00 | 71 | 1016.6 |
| 20260901093707 | 71 | 222 | 0.0 | 0.0 | 0.00 | 0.00 | 0.00 | 71 | 1016.8 |
| 20260901093403 | 71 | 222 | 0.0 | 0.0 | 0.00 | 0.00 | 0.00 | 71 | 1016.8 |
| 20260901093051 | 71 | 222 | 0.0 | 0.0 | 0.00 | 0.00 | 0.00 | 71 | 1016.8 |
| 20260901092755 | 71 | 222 | 0.0 | 1.0 | 0.00 | 0.00 | 0.00 | 71 | 1016.9 |
| 20260901092443 | 71 | 242 | 0.0 | 0.0 | 0.00 | 0.00 | 0.00 | 71 | 1017.0 |
| 20260901092132 | 71 | 242 | 0.0 | 0.0 | 0.00 | 0.00 | 0.00 | 71 | 1016.9 |
| 20260901091825 | 71 | 242 | 0.0 | 0.0 | 0.00 | 0.00 | 0.00 | 71 | 1016.9 |
| 20260901091517 | 71 | 242 | 0.0 | 0.0 | 0.00 | 0.00 | 0.00 | 71 | 1016.9 |
| 20260901091209 | 71 | 242 | 0.0 | 0.0 | 0.00 | 0.00 | 0.00 | 71 | 1016.8 |
| 20260901090855 | 71 | 242 | 0.0 | 0.0 | 0.00 | 0.00 | 0.00 | 71 | 1016.9 |
| 20260901090547 | 71 | 242 | 0.0 | 0.0 | 0.00 | 0.00 | 0.00 | 71 | 1016.9 |
| 20260901090251 | 71 | 242 | 0.0 | 0.0 | 0.00 | 0.00 | 0.00 | 71 | 1016.9 |
| 20260901085516 | 71 | 242 | 0.0 | 0.0 | 0.00 | 0.00 | 0.00 | 71 | 1016.9 |
| 20260901085216 | 71 | 242 | 0.0 | 0.0 | 0.00 | 0.00 | 0.00 | 71 | 1016.9 |
| 20260901084906 | 71 | 242 | 0.0 | 0.0 | 0.00 | 0.00 | 0.00 | 71 | 1017.0 |
| 20260901084559 | 71 | 242 | 0.0 | 0.0 | 0.00 | 0.00 | 0.00 | 71 | 1017.0 |
| 20260901084255 | 71 | 242 | 0.0 | 0.0 | 0.00 | 0.00 | 0.00 | 71 | 1017.1 |
| 20260901083948 | 71 | 242 | 0.0 | 0.0 | 0.00 | 0.00 | 0.00 | 71 | 1017.0 |
| 20260901083649 | 71 | 242 | 0.0 | 0.0 | 0.00 | 0.00 | 0.00 | 71 | 1017.1 |
| 20260901083343 | 71 | 242 | 0.0 | 0.0 | 0.00 | 0.00 | 0.00 | 71 | 1017.0 |
| 20260901083046 | 71 | 242 | 0.0 | 0.0 | 0.00 | 0.00 | 0.00 | 71 | 1017.1 |
| 20260901082733 | 71 | 242 | 0.0 | 0.0 | 0.00 | 0.00 | 0.00 | 71 | 1017.1 |
| 20260901082438 | 71 | 242 | 0.0 | 0.0 | 0.00 | 0.00 | 0.00 | 71 | 1017.1 |
| 20260901082125 | 71 | 242 | 0.0 | 0.0 | 0.00 | 0.00 | 0.00 | 71 | 1017.1 |
| 20260901081812 | 71 | 242 | 0.0 | 0.0 | 0.00 | 0.00 | 0.00 | 71 | 1017.1 |
| 20260901081036 | 71 | 242 | 0.0 | 0.0 | 0.00 | 0.00 | 0.00 | 71 | 1017.1 |
| 20260901080734 | 71 | 242 | 0.0 | 0.0 | 0.00 | 0.00 | 0.00 | 71 | 1017.2 |
| 20260901080435 | 71 | 242 | 0.0 | 0.0 | 0.00 | 0.00 | 0.00 | 71 | 1017.2 |
| 20260901080133 | 71 | 242 | 0.0 | 0.0 | 0.00 | 0.00 | 0.00 | 71 | 1017.3 |
| 20260901075826 | 71 | 242 | 0.0 | 0.0 | 0.00 | 0.00 | 0.00 | 71 | 1017.3 |
| 20260901075525 | 71 | 242 | 0.0 | 0.0 | 0.00 | 0.00 | 0.00 | 71 | 1017.3 |
| 20260901074757 | 71 | 242 | 0.0 | 0.0 | 0.00 | 0.00 | 0.00 | 71 | 1017.4 |
| 20260901074446 | 71 | 264 | 0.0 | 0.0 | 0.00 | 0.00 | 0.00 | 71 | 1017.4 |
| 20260901074142 | 71 | 290 | 0.0 | 0.0 | 0.00 | 0.00 | 0.00 | 70 | 1017.3 |
| 20260901073834 | 71 | 290 | 0.0 | 0.0 | 0.00 | 0.00 | 0.00 | 70 | 1017.4 |
| 20260901073523 | 71 | 290 | 0.0 | 0.0 | 0.00 | 0.00 | 0.00 | 70 | 1017.4 |
| 20260901073226 | 71 | 168 | 0.0 | 0.0 | 0.00 | 0.00 | 0.00 | 70 | 1017.4 |
| 20260901072510 | 71 | 168 | 0.0 | 0.0 | 0.00 | 0.00 | 0.00 | 70 | 1017.3 |
| 20260901072214 | 71 | 167 | 0.0 | 0.0 | 0.00 | 0.00 | 0.00 | 70 | 1017.3 |
| 20260901071900 | 71 | 163 | 0.0 | 0.0 | 0.00 | 0.00 | 0.00 | 70 | 1017.2 |
| 20260901071553 | 71 | 163 | 0.0 | 0.0 | 0.00 | 0.00 | 0.00 | 70 | 1017.3 |
| 20260901070829 | 71 | 163 | 0.0 | 0.0 | 0.00 | 0.00 | 0.00 | 70 | 1017.1 |
| 20260901070525 | 71 | 163 | 0.0 | 0.0 | 0.00 | 0.00 | 0.00 | 70 | 1017.2 |
| 20260901070214 | 71 | 163 | 0.0 | 0.0 | 0.00 | 0.00 | 0.00 | 70 | 1017.1 |
| 20260901065438 | 71 | 163 | 0.0 | 0.0 | 0.00 | 0.00 | 0.00 | 70 | 1017.1 |
| 20260901065138 | 71 | 163 | 0.0 | 0.0 | 0.00 | 0.00 | 0.00 | 70 | 1017.1 |
| 20260901064838 | 71 | 163 | 0.0 | 0.0 | 0.00 | 0.00 | 0.00 | 70 | 1017.3 |
| 20260901064533 | 71 | 163 | 0.0 | 0.0 | 0.00 | 0.00 | 0.00 | 70 | 1017.2 |
| 20260901064222 | 71 | 163 | 0.0 | 0.0 | 0.00 | 0.00 | 0.00 | 70 | 1017.2 |
| 20260901063923 | 72 | 163 | 0.0 | 0.0 | 0.00 | 0.00 | 0.00 | 70 | 1017.3 |
| 20260901063202 | 72 | 163 | 0.0 | 0.0 | 0.00 | 0.00 | 0.00 | 70 | 1017.4 |
| 20260901062443 | 72 | 163 | 0.0 | 0.0 | 0.00 | 0.00 | 0.00 | 70 | 1017.3 |
| 20260901062141 | 72 | 163 | 0.0 | 0.0 | 0.00 | 0.00 | 0.00 | 70 | 1017.4 |
| 20260901061833 | 72 | 139 | 0.0 | 0.0 | 0.00 | 0.00 | 0.00 | 70 | 1017.5 |
| 20260901061528 | 72 | 139 | 0.0 | 0.0 | 0.00 | 0.00 | 0.00 | 70 | 1017.5 |
| 20260901060758 | 72 | 139 | 0.0 | 0.0 | 0.00 | 0.00 | 0.00 | 70 | 1017.7 |
| 20260901060446 | 72 | 139 | 0.0 | 0.0 | 0.00 | 0.00 | 0.00 | 70 | 1017.6 |
| 20260901060133 | 72 | 139 | 0.0 | 0.0 | 0.00 | 0.00 | 0.00 | 70 | 1017.6 |
| 20260901055834 | 72 | 139 | 0.0 | 0.0 | 0.00 | 0.00 | 0.00 | 70 | 1017.7 |
| 20260901055112 | 72 | 178 | 0.0 | 1.0 | 0.00 | 0.00 | 0.00 | 70 | 1017.7 |
| 20260901054803 | 73 | 194 | 0.0 | 0.0 | 0.00 | 0.00 | 0.00 | 70 | 1017.8 |
| 20260901054031 | 73 | 194 | 0.0 | 0.0 | 0.00 | 0.01 | 0.00 | 70 | 1017.9 |
| 20260901053727 | 73 | 194 | 0.0 | 0.0 | 0.00 | 0.01 | 0.00 | 70 | 1017.9 |
| 20260901053007 | 73 | 194 | 0.0 | 0.0 | 0.00 | 0.01 | 0.00 | 70 | 1018.0 |
| 20260901052655 | 73 | 194 | 0.0 | 0.0 | 0.00 | 0.01 | 0.00 | 70 | 1018.1 |
| 20260901052352 | 73 | 194 | 0.0 | 0.0 | 0.00 | 0.01 | 0.00 | 70 | 1018.0 |
| 20260901051628 | 73 | 194 | 0.0 | 0.0 | 0.00 | 0.04 | 0.00 | 70 | 1018.0 |
| 20260901051331 | 73 | 194 | 0.0 | 0.0 | 0.00 | 0.09 | 0.00 | 70 | 1018.0 |
| 20260901051022 | 73 | 194 | 0.0 | 0.0 | 0.00 | 0.11 | 0.00 | 70 | 1018.1 |
| 20260901050724 | 73 | 194 | 0.0 | 0.0 | 0.00 | 0.15 | 0.00 | 70 | 1018.1 |
| 20260901050424 | 73 | 194 | 0.0 | 0.0 | 0.00 | 0.17 | 0.00 | 70 | 1018.1 |
| 20260901050128 | 73 | 194 | 0.0 | 0.0 | 0.00 | 0.18 | 0.00 | 70 | 1018.0 |
| 20260901045826 | 73 | 194 | 0.0 | 0.0 | 0.00 | 0.18 | 0.00 | 70 | 1018.1 |
| 20260901045517 | 73 | 194 | 0.0 | 0.0 | 0.00 | 0.18 | 0.00 | 70 | 1018.0 |
| 20260901045208 | 74 | 194 | 0.0 | 0.0 | 0.00 | 0.18 | 0.00 | 70 | 1018.0 |
| 20260901044905 | 74 | 197 | 0.0 | 0.0 | 0.00 | 0.18 | 0.00 | 70 | 1018.0 |
| 20260901044150 | 74 | 197 | 0.0 | 0.0 | 0.00 | 0.18 | 0.00 | 70 | 1018.0 |
| 20260901043839 | 74 | 197 | 0.0 | 0.0 | 0.00 | 0.18 | 0.00 | 70 | 1018.0 |
| 20260901043537 | 74 | 197 | 0.0 | 0.0 | 0.00 | 0.18 | 0.00 | 70 | 1018.0 |
| 20260901043232 | 74 | 197 | 0.0 | 0.0 | 0.00 | 0.18 | 0.00 | 70 | 1018.0 |
| 20260901042929 | 74 | 197 | 0.0 | 0.0 | 0.00 | 0.18 | 0.00 | 70 | 1018.0 |
| 20260901042624 | 74 | 197 | 0.0 | 0.0 | 0.00 | 0.18 | 0.00 | 70 | 1018.0 |
| 20260901042311 | 74 | 197 | 0.0 | 0.0 | 0.00 | 0.18 | 0.00 | 70 | 1018.1 |
| 20260901042012 | 74 | 197 | 0.0 | 0.0 | 0.00 | 0.18 | 0.00 | 70 | 1018.0 |
| 20260901041257 | 74 | 197 | 0.0 | 0.0 | 0.00 | 0.18 | 0.00 | 70 | 1018.0 |
| 20260901040955 | 74 | 197 | 0.0 | 0.0 | 0.00 | 0.18 | 0.00 | 70 | 1018.0 |
| 20260901040654 | 74 | 197 | 0.0 | 0.0 | 0.00 | 0.18 | 0.00 | 70 | 1018.2 |
| 20260901040343 | 74 | 197 | 0.0 | 0.0 | 0.00 | 0.18 | 0.00 | 70 | 1018.1 |
| 20260901040032 | 74 | 197 | 0.0 | 0.0 | 0.00 | 0.18 | 0.00 | 70 | 1018.3 |
| 20260901035727 | 74 | 197 | 0.0 | 0.0 | 0.00 | 0.18 | 0.18 | 70 | 1018.2 |
| 20260901034526 | 74 | 197 | 0.0 | 0.0 | 0.00 | 0.18 | 0.18 | 70 | 1018.3 |
| 20260901033801 | 74 | 197 | 0.0 | 0.0 | 0.00 | 0.18 | 0.18 | 70 | 1018.2 |
| 20260901033505 | 74 | 197 | 0.0 | 0.0 | 0.00 | 0.18 | 0.18 | 70 | 1018.3 |
| 20260901032726 | 74 | 198 | 0.0 | 0.0 | 0.00 | 0.18 | 0.18 | 70 | 1018.2 |
| 20260901031957 | 74 | 303 | 0.0 | 0.0 | 0.00 | 0.18 | 0.18 | 70 | 1018.3 |
| 20260901031646 | 74 | 303 | 0.0 | 0.0 | 0.00 | 0.18 | 0.18 | 70 | 1018.3 |
| 20260901031337 | 74 | 303 | 0.0 | 0.0 | 0.00 | 0.18 | 0.18 | 70 | 1018.3 |
| 20260901030609 | 74 | 303 | 0.0 | 0.0 | 0.00 | 0.18 | 0.18 | 70 | 1018.3 |
| 20260901030310 | 75 | 303 | 0.0 | 0.0 | 0.00 | 0.18 | 0.18 | 70 | 1018.3 |
| 20260901030008 | 75 | 303 | 0.0 | 0.0 | 0.00 | 0.18 | 0.18 | 70 | 1018.3 |
| 20260901025655 | 75 | 303 | 0.0 | 0.0 | 0.00 | 0.18 | 0.18 | 70 | 1018.4 |
| 20260901024937 | 75 | 303 | 0.0 | 0.0 | 0.00 | 0.18 | 0.18 | 70 | 1018.4 |
| 20260901024625 | 75 | 303 | 0.0 | 0.0 | 0.00 | 0.18 | 0.18 | 69 | 1018.5 |
| 20260901023846 | 75 | 303 | 0.0 | 0.0 | 0.00 | 0.18 | 0.18 | 69 | 1018.5 |
| 20260901023547 | 75 | 303 | 0.0 | 0.0 | 0.00 | 0.18 | 0.18 | 69 | 1018.5 |
| 20260901023239 | 75 | 303 | 0.0 | 0.0 | 0.00 | 0.18 | 0.18 | 69 | 1018.5 |
| 20260901022929 | 75 | 303 | 0.0 | 0.0 | 0.00 | 0.18 | 0.18 | 69 | 1018.5 |
| 20260901022626 | 75 | 303 | 0.0 | 0.0 | 0.00 | 0.18 | 0.18 | 69 | 1018.5 |
| 20260901022317 | 75 | 303 | 0.0 | 0.0 | 0.00 | 0.18 | 0.18 | 69 | 1018.6 |
| 20260901022014 | 75 | 303 | 0.0 | 0.0 | 0.00 | 0.18 | 0.18 | 69 | 1018.6 |
| 20260901020821 | 75 | 303 | 0.0 | 0.0 | 0.00 | 0.18 | 0.18 | 69 | 1018.7 |
| 20260901020512 | 75 | 303 | 0.0 | 0.0 | 0.00 | 0.18 | 0.18 | 69 | 1018.7 |
| 20260901020200 | 75 | 303 | 0.0 | 0.0 | 0.00 | 0.18 | 0.18 | 69 | 1018.7 |
| 20260901015856 | 75 | 303 | 0.0 | 0.0 | 0.00 | 0.18 | 0.18 | 69 | 1018.7 |
| 20260901015543 | 75 | 303 | 0.0 | 0.0 | 0.00 | 0.18 | 0.18 | 70 | 1018.8 |
| 20260901015244 | 75 | 303 | 0.0 | 0.0 | 0.00 | 0.18 | 0.18 | 69 | 1018.7 |
| 20260901014931 | 75 | 303 | 0.0 | 1.0 | 0.00 | 0.18 | 0.18 | 69 | 1018.7 |
| 20260901014204 | 75 | 112 | 0.0 | 0.0 | 0.00 | 0.18 | 0.18 | 69 | 1018.5 |
| 20260901013907 | 75 | 112 | 0.0 | 0.0 | 0.00 | 0.18 | 0.18 | 69 | 1018.5 |
| 20260901013609 | 75 | 112 | 0.0 | 0.0 | 0.00 | 0.18 | 0.18 | 69 | 1018.5 |
| 20260901013301 | 75 | 112 | 0.0 | 0.0 | 0.00 | 0.18 | 0.18 | 69 | 1018.5 |
| 20260901012949 | 75 | 112 | 0.0 | 0.0 | 0.00 | 0.18 | 0.18 | 69 | 1018.5 |
| 20260901012641 | 75 | 112 | 0.0 | 0.0 | 0.00 | 0.18 | 0.18 | 69 | 1018.4 |
| 20260901012331 | 75 | 112 | 0.0 | 0.0 | 0.00 | 0.18 | 0.18 | 69 | 1018.4 |
| 20260901012025 | 75 | 112 | 0.0 | 0.0 | 0.00 | 0.18 | 0.18 | 69 | 1018.3 |
| 20260901011715 | 75 | 112 | 0.0 | 0.0 | 0.00 | 0.18 | 0.18 | 69 | 1018.3 |
| 20260901011412 | 75 | 112 | 0.0 | 0.0 | 0.00 | 0.18 | 0.18 | 69 | 1018.3 |
| 20260901011059 | 75 | 112 | 0.0 | 0.0 | 0.00 | 0.18 | 0.18 | 69 | 1018.2 |
| 20260901010755 | 75 | 112 | 0.0 | 0.0 | 0.00 | 0.18 | 0.18 | 69 | 1018.1 |
| 20260901010444 | 76 | 112 | 0.0 | 0.0 | 0.00 | 0.18 | 0.18 | 69 | 1018.1 |
| 20260901010134 | 76 | 111 | 0.0 | 0.0 | 0.00 | 0.18 | 0.18 | 69 | 1018.1 |
| 20260901005822 | 76 | 107 | 0.0 | 0.0 | 0.00 | 0.18 | 0.18 | 69 | 1018.1 |
| 20260901005508 | 76 | 103 | 0.0 | 0.0 | 0.00 | 0.18 | 0.18 | 69 | 1018.2 |
| 20260901005156 | 76 | 74 | 0.0 | 0.0 | 0.00 | 0.18 | 0.18 | 69 | 1018.1 |
| 20260901004858 | 76 | 74 | 0.0 | 0.0 | 0.00 | 0.18 | 0.18 | 69 | 1018.2 |
| 20260901004555 | 76 | 71 | 0.0 | 0.0 | 0.00 | 0.18 | 0.18 | 68 | 1018.1 |
| 20260901003836 | 76 | 159 | 0.0 | 0.0 | 0.00 | 0.18 | 0.18 | 69 | 1017.7 |
| 20260901003539 | 76 | 163 | 0.0 | 0.0 | 0.00 | 0.18 | 0.18 | 68 | 1017.7 |
| 20260901003229 | 76 | 163 | 0.0 | 0.0 | 0.00 | 0.18 | 0.18 | 68 | 1017.7 |
| 20260901002922 | 77 | 163 | 0.0 | 0.0 | 0.00 | 0.18 | 0.18 | 68 | 1017.8 |
| 20260901002608 | 77 | 190 | 0.0 | 0.0 | 0.00 | 0.18 | 0.18 | 68 | 1017.8 |
| 20260901001846 | 77 | 201 | 0.0 | 0.0 | 0.00 | 0.18 | 0.18 | 68 | 1017.8 |
| 20260901001127 | 77 | 201 | 0.0 | 0.0 | 0.00 | 0.18 | 0.18 | 67 | 1017.8 |
| 20260901000822 | 77 | 201 | 0.0 | 0.0 | 0.00 | 0.18 | 0.18 | 67 | 1017.8 |
| 20260831235635 | 78 | 201 | 0.0 | 0.0 | 0.00 | 0.18 | 0.18 | 66 | 1017.7 |
| 20260831235339 | 78 | 138 | 0.0 | 0.0 | 0.00 | 0.18 | 0.18 | 66 | 1017.8 |
| 20260831235035 | 78 | 107 | 0.0 | 0.0 | 0.00 | 0.18 | 0.18 | 66 | 1017.8 |
| 20260831234727 | 78 | 107 | 0.0 | 0.0 | 0.00 | 0.18 | 0.18 | 66 | 1017.8 |
| 20260831234420 | 78 | 107 | 0.0 | 0.0 | 0.00 | 0.18 | 0.18 | 66 | 1017.8 |
| 20260831234118 | 79 | 97 | 0.0 | 0.0 | 0.00 | 0.18 | 0.18 | 66 | 1017.8 |
| 20260831233821 | 79 | 139 | 0.0 | 0.0 | 0.00 | 0.18 | 0.18 | 66 | 1017.8 |
| 20260831233509 | 79 | 139 | 0.0 | 1.0 | 0.00 | 0.18 | 0.18 | 66 | 1017.8 |
| 20260831232329 | 79 | 181 | 0.0 | 0.0 | 0.00 | 0.18 | 0.18 | 65 | 1017.9 |
| 20260831232020 | 79 | 192 | 0.0 | 0.0 | 0.00 | 0.18 | 0.18 | 64 | 1017.8 |
| 20260831231720 | 80 | 149 | 0.0 | 2.0 | 0.00 | 0.18 | 0.18 | 64 | 1017.8 |
| 20260831231420 | 80 | 217 | 0.0 | 1.0 | 0.00 | 0.18 | 0.18 | 64 | 1018.0 |
| 20260831231117 | 80 | 196 | 0.0 | 6.0 | 0.00 | 0.18 | 0.18 | 64 | 1017.9 |
| 20260831230818 | 80 | 215 | 1.0 | 6.0 | 0.00 | 0.18 | 0.18 | 64 | 1017.9 |
| 20260831230516 | 80 | 183 | 1.0 | 6.0 | 0.00 | 0.18 | 0.18 | 64 | 1017.7 |
| 20260831225740 | 81 | 167 | 1.0 | 6.0 | 0.00 | 0.18 | 0.18 | 64 | 1017.9 |
| 20260831225443 | 81 | 179 | 1.0 | 6.0 | 0.00 | 0.18 | 0.18 | 63 | 1017.9 |
| 20260831225139 | 81 | 198 | 1.0 | 4.0 | 0.00 | 0.18 | 0.18 | 63 | 1018.0 |
| 20260831224841 | 81 | 134 | 1.0 | 4.0 | 0.00 | 0.18 | 0.18 | 63 | 1018.0 |
| 20260831224535 | 81 | 261 | 1.0 | 3.0 | 0.00 | 0.18 | 0.18 | 63 | 1018.1 |
| 20260831223813 | 81 | 200 | 0.0 | 2.0 | 0.00 | 0.18 | 0.18 | 63 | 1018.0 |
| 20260831223459 | 81 | 204 | 0.0 | 2.0 | 0.00 | 0.18 | 0.18 | 63 | 1017.9 |
| 20260831222740 | 81 | 191 | 2.0 | 5.0 | 0.00 | 0.18 | 0.18 | 63 | 1018.0 |
| 20260831222434 | 81 | 167 | 1.0 | 5.0 | 0.00 | 0.18 | 0.18 | 63 | 1017.9 |
| 20260831222127 | 81 | 188 | 1.0 | 5.0 | 0.00 | 0.18 | 0.18 | 63 | 1018.0 |
| 20260831221815 | 81 | 164 | 2.0 | 5.0 | 0.00 | 0.18 | 0.18 | 63 | 1018.0 |
| 20260831221517 | 81 | 213 | 1.0 | 5.0 | 0.00 | 0.18 | 0.18 | 63 | 1018.0 |
| 20260831221218 | 81 | 127 | 1.0 | 4.0 | 0.00 | 0.18 | 0.18 | 62 | 1018.0 |
| 20260831220919 | 81 | 216 | 1.0 | 4.0 | 0.00 | 0.18 | 0.18 | 63 | 1018.1 |
| 20260831220612 | 81 | 161 | 1.0 | 4.0 | 0.00 | 0.18 | 0.18 | 63 | 1018.1 |
| 20260831220314 | 81 | 240 | 1.0 | 0.0 | 0.00 | 0.18 | 0.18 | 63 | 1018.1 |
| 20260831220003 | 81 | 174 | 2.0 | 7.0 | 0.00 | 0.18 | 0.18 | 62 | 1018.1 |
| 20260831215656 | 81 | 224 | 2.0 | 7.0 | 0.00 | 0.18 | 0.18 | 63 | 1018.1 |
| 20260831215352 | 81 | 267 | 2.0 | 7.0 | 0.00 | 0.18 | 0.18 | 63 | 1018.0 |
| 20260831215054 | 81 | 263 | 2.0 | 7.0 | 0.00 | 0.18 | 0.18 | 63 | 1018.1 |
| 20260831214332 | 81 | 197 | 1.0 | 6.0 | 0.00 | 0.18 | 0.18 | 64 | 1018.2 |
| 20260831214033 | 80 | 234 | 0.0 | 4.0 | 0.00 | 0.18 | 0.18 | 64 | 1018.4 |
| 20260831213720 | 80 | 180 | 0.0 | 2.0 | 0.00 | 0.18 | 0.18 | 64 | 1018.4 |
| 20260831213409 | 80 | 128 | 0.0 | 2.0 | 0.00 | 0.18 | 0.18 | 65 | 1018.5 |
| 20260831213059 | 80 | 194 | 0.0 | 2.0 | 0.00 | 0.18 | 0.18 | 65 | 1018.5 |
| 20260831212801 | 80 | 245 | 0.0 | 2.0 | 0.00 | 0.18 | 0.18 | 65 | 1018.6 |
| 20260831212448 | 80 | 192 | 0.0 | 1.0 | 0.00 | 0.18 | 0.18 | 64 | 1018.6 |
| 20260831212144 | 80 | 235 | 0.0 | 1.0 | 0.00 | 0.18 | 0.18 | 64 | 1018.6 |
| 20260831211844 | 80 | 191 | 0.0 | 3.0 | 0.00 | 0.18 | 0.18 | 64 | 1018.5 |
| 20260831211531 | 80 | 177 | 0.0 | 3.0 | 0.00 | 0.18 | 0.18 | 63 | 1018.5 |
| 20260831211228 | 80 | 166 | 0.0 | 3.0 | 0.00 | 0.18 | 0.18 | 63 | 1018.5 |
| 20260831210458 | 80 | 190 | 1.0 | 3.0 | 0.00 | 0.18 | 0.18 | 63 | 1018.7 |
| 20260831210158 | 80 | 170 | 1.0 | 3.0 | 0.00 | 0.18 | 0.18 | 63 | 1018.7 |
| 20260831205850 | 80 | 203 | 1.0 | 3.0 | 0.00 | 0.18 | 0.18 | 62 | 1018.7 |
| 20260831205550 | 81 | 167 | 0.0 | 3.0 | 0.00 | 0.18 | 0.18 | 63 | 1018.7 |
| 20260831205244 | 81 | 239 | 0.0 | 3.0 | 0.00 | 0.18 | 0.18 | 64 | 1018.8 |
| 20260831204948 | 81 | 213 | 0.0 | 3.0 | 0.00 | 0.18 | 0.18 | 63 | 1018.8 |
| 20260831204640 | 81 | 184 | 1.0 | 4.0 | 0.00 | 0.18 | 0.18 | 63 | 1018.7 |
| 20260831204343 | 81 | 154 | 1.0 | 4.0 | 0.00 | 0.18 | 0.18 | 63 | 1018.7 |
| 20260831204038 | 81 | 192 | 2.0 | 4.0 | 0.00 | 0.18 | 0.18 | 63 | 1018.7 |
| 20260831203737 | 81 | 227 | 1.0 | 4.0 | 0.00 | 0.18 | 0.18 | 63 | 1018.7 |
| 20260831203014 | 80 | 168 | 1.0 | 4.0 | 0.00 | 0.18 | 0.18 | 63 | 1018.7 |
| 20260831202707 | 80 | 167 | 1.0 | 3.0 | 0.00 | 0.18 | 0.18 | 63 | 1018.7 |
| 20260831202408 | 80 | 205 | 0.0 | 3.0 | 0.00 | 0.18 | 0.18 | 64 | 1018.8 |
| 20260831202111 | 80 | 217 | 0.0 | 3.0 | 0.00 | 0.18 | 0.18 | 63 | 1018.8 |
| 20260831201400 | 80 | 197 | 0.0 | 2.0 | 0.00 | 0.18 | 0.18 | 63 | 1018.9 |
| 20260831201052 | 80 | 109 | 0.0 | 2.0 | 0.00 | 0.18 | 0.18 | 64 | 1019.0 |
| 20260831200742 | 80 | 203 | 0.0 | 2.0 | 0.00 | 0.18 | 0.18 | 63 | 1019.1 |
| 20260831200438 | 80 | 154 | 0.0 | 0.0 | 0.00 | 0.18 | 0.18 | 64 | 1019.1 |
| 20260831200129 | 80 | 219 | 0.0 | 0.0 | 0.00 | 0.18 | 0.18 | 63 | 1019.1 |
| 20260831195819 | 80 | 130 | 0.0 | 2.0 | 0.00 | 0.18 | 0.18 | 64 | 1019.2 |
| 20260831195515 | 80 | 204 | 0.0 | 0.0 | 0.00 | 0.18 | 0.18 | 63 | 1019.1 |
| 20260831194744 | 80 | 212 | 0.0 | 1.0 | 0.00 | 0.18 | 0.18 | 62 | 1019.1 |
| 20260831194444 | 80 | 139 | 0.0 | 1.0 | 0.00 | 0.18 | 0.18 | 62 | 1019.1 |
| 20260831194144 | 80 | 128 | 0.0 | 1.0 | 0.00 | 0.18 | 0.18 | 63 | 1019.2 |
| 20260831193832 | 80 | 229 | 0.0 | 0.0 | 0.00 | 0.18 | 0.18 | 63 | 1019.2 |
| 20260831193536 | 80 | 111 | 0.0 | 0.0 | 0.00 | 0.18 | 0.18 | 63 | 1019.2 |
| 20260831193232 | 80 | 111 | 0.0 | 1.0 | 0.00 | 0.18 | 0.18 | 63 | 1019.2 |
| 20260831192919 | 80 | 150 | 0.0 | 1.0 | 0.00 | 0.18 | 0.18 | 63 | 1019.2 |
| 20260831192615 | 80 | 169 | 0.0 | 1.0 | 0.00 | 0.18 | 0.18 | 63 | 1019.3 |
| 20260831192309 | 80 | 134 | 0.0 | 3.0 | 0.00 | 0.18 | 0.18 | 63 | 1019.3 |
| 20260831192011 | 80 | 139 | 0.0 | 3.0 | 0.00 | 0.18 | 0.18 | 63 | 1019.4 |
| 20260831191711 | 80 | 224 | 0.0 | 3.0 | 0.00 | 0.18 | 0.18 | 62 | 1019.5 |
| 20260831191415 | 81 | 211 | 0.0 | 2.0 | 0.00 | 0.18 | 0.18 | 62 | 1019.6 |
| 20260831191119 | 81 | 198 | 0.0 | 1.0 | 0.00 | 0.18 | 0.18 | 62 | 1019.6 |
| 20260831190809 | 81 | 144 | 0.0 | 1.0 | 0.00 | 0.18 | 0.18 | 61 | 1019.6 |
| 20260831190038 | 81 | 91 | 0.0 | 3.0 | 0.00 | 0.18 | 0.18 | 60 | 1019.7 |
| 20260831184438 | 82 | 163 | 0.0 | 5.0 | 0.00 | 0.18 | 0.18 | 60 | 1019.7 |
| 20260831184133 | 82 | 190 | 1.0 | 5.0 | 0.00 | 0.18 | 0.18 | 62 | 1019.7 |
| 20260831183827 | 82 | 110 | 1.0 | 5.0 | 0.00 | 0.18 | 0.18 | 60 | 1019.7 |
| 20260831183529 | 82 | 73 | 1.0 | 5.0 | 0.00 | 0.18 | 0.18 | 61 | 1019.7 |
| 20260831183227 | 82 | 124 | 1.0 | 4.0 | 0.00 | 0.18 | 0.18 | 62 | 1019.7 |
| 20260831182506 | 81 | 90 | 0.0 | 2.0 | 0.00 | 0.18 | 0.18 | 61 | 1019.7 |
| 20260831182153 | 81 | 103 | 0.0 | 3.0 | 0.00 | 0.18 | 0.18 | 61 | 1019.7 |
| 20260831181857 | 81 | 313 | 0.0 | 3.0 | 0.00 | 0.18 | 0.18 | 61 | 1019.7 |
| 20260831181601 | 81 | 248 | 0.0 | 3.0 | 0.00 | 0.18 | 0.18 | 62 | 1019.8 |
| 20260831181257 | 81 | 113 | 0.0 | 3.0 | 0.00 | 0.18 | 0.18 | 62 | 1019.8 |
| 20260831180533 | 80 | 171 | 0.0 | 3.0 | 0.00 | 0.18 | 0.18 | 61 | 1019.8 |
| 20260831180223 | 80 | 111 | 0.0 | 2.0 | 0.00 | 0.18 | 0.18 | 62 | 1019.8 |
| 20260831175909 | 80 | 65 | 0.0 | 2.0 | 0.00 | 0.18 | 0.18 | 61 | 1019.8 |
| 20260831175605 | 80 | 157 | 0.0 | 2.0 | 0.00 | 0.18 | 0.18 | 62 | 1019.9 |
| 20260831174408 | 80 | 67 | 0.0 | 3.0 | 0.00 | 0.18 | 0.18 | 60 | 1020.0 |
| 20260831174111 | 80 | 71 | 0.0 | 3.0 | 0.00 | 0.18 | 0.18 | 61 | 1020.0 |
| 20260831173803 | 80 | 61 | 0.0 | 3.0 | 0.00 | 0.18 | 0.18 | 61 | 1020.0 |
| 20260831173453 | 80 | 83 | 0.0 | 3.0 | 0.00 | 0.18 | 0.18 | 60 | 1020.0 |
| 20260831173139 | 80 | 122 | 0.0 | 3.0 | 0.00 | 0.18 | 0.18 | 61 | 1020.0 |
| 20260831172831 | 81 | 109 | 0.0 | 2.0 | 0.00 | 0.18 | 0.18 | 62 | 1020.0 |
| 20260831172522 | 81 | 68 | 0.0 | 2.0 | 0.00 | 0.18 | 0.18 | 62 | 1020.0 |
| 20260831172212 | 81 | 135 | 0.0 | 2.0 | 0.00 | 0.18 | 0.18 | 60 | 1020.0 |
| 20260831171859 | 81 | 175 | 0.0 | 2.0 | 0.00 | 0.18 | 0.18 | 61 | 1019.9 |
| 20260831171134 | 81 | 170 | 1.0 | 4.0 | 0.00 | 0.18 | 0.18 | 59 | 1020.0 |
| 20260831170833 | 81 | 157 | 0.0 | 4.0 | 0.00 | 0.18 | 0.18 | 60 | 1020.0 |
| 20260831170528 | 81 | 202 | 0.0 | 4.0 | 0.00 | 0.18 | 0.18 | 61 | 1020.1 |
| 20260831165811 | 81 | 160 | 0.0 | 4.0 | 0.00 | 0.18 | 0.18 | 60 | 1020.1 |
| 20260831165514 | 81 | 217 | 0.0 | 3.0 | 0.00 | 0.18 | 0.18 | 62 | 1020.1 |
| 20260831165204 | 81 | 105 | 0.0 | 2.0 | 0.00 | 0.18 | 0.18 | 61 | 1020.2 |
| 20260831164904 | 81 | 10 | 0.0 | 3.0 | 0.00 | 0.18 | 0.18 | 62 | 1020.1 |
| 20260831164603 | 81 | 295 | 0.0 | 3.0 | 0.00 | 0.18 | 0.18 | 62 | 1020.1 |
| 20260831164256 | 80 | 151 | 0.0 | 3.0 | 0.00 | 0.18 | 0.18 | 62 | 1020.1 |
| 20260831163944 | 80 | 201 | 0.0 | 3.0 | 0.00 | 0.18 | 0.18 | 63 | 1020.2 |
| 20260831163646 | 80 | 335 | 0.0 | 4.0 | 0.00 | 0.18 | 0.18 | 66 | 1020.2 |
| 20260831162915 | 79 | 341 | 0.0 | 4.0 | 0.00 | 0.18 | 0.18 | 66 | 1020.3 |
| 20260831162606 | 79 | 306 | 0.0 | 4.0 | 0.00 | 0.18 | 0.18 | 65 | 1020.4 |
| 20260831162307 | 79 | 315 | 0.0 | 4.0 | 0.00 | 0.18 | 0.18 | 66 | 1020.4 |
| 20260831162003 | 79 | 250 | 0.0 | 4.0 | 0.00 | 0.18 | 0.18 | 67 | 1020.4 |
| 20260831161701 | 79 | 117 | 1.0 | 0.0 | 0.00 | 0.18 | 0.18 | 67 | 1020.4 |
| 20260831160935 | 78 | 130 | 1.0 | 4.0 | 0.00 | 0.18 | 0.18 | 66 | 1020.5 |
| 20260831160159 | 77 | 69 | 1.0 | 4.0 | 0.00 | 0.18 | 0.18 | 69 | 1020.5 |
| 20260831155902 | 77 | 234 | 1.0 | 4.0 | 0.00 | 0.18 | 0.18 | 69 | 1020.6 |
| 20260831155601 | 77 | 226 | 0.0 | 4.0 | 0.00 | 0.18 | 0.18 | 69 | 1020.6 |
| 20260831155255 | 76 | 170 | 0.0 | 4.0 | 0.00 | 0.18 | 0.18 | 70 | 1020.6 |
| 20260831154953 | 76 | 115 | 0.0 | 3.0 | 0.00 | 0.18 | 0.18 | 70 | 1020.6 |
| 20260831154657 | 76 | 187 | 0.0 | 3.0 | 0.00 | 0.18 | 0.18 | 71 | 1020.6 |
| 20260831154353 | 76 | 242 | 0.0 | 3.0 | 0.00 | 0.18 | 0.18 | 71 | 1020.6 |
| 20260831154057 | 76 | 299 | 0.0 | 1.0 | 0.00 | 0.18 | 0.18 | 70 | 1020.5 |
| 20260831153750 | 76 | 221 | 0.0 | 0.0 | 0.00 | 0.18 | 0.18 | 70 | 1020.6 |
| 20260831153449 | 76 | 198 | 1.0 | 5.0 | 0.00 | 0.18 | 0.18 | 70 | 1020.5 |
| 20260831153139 | 76 | 236 | 1.0 | 5.0 | 0.00 | 0.18 | 0.18 | 71 | 1020.4 |
| 20260831152838 | 75 | 175 | 0.0 | 5.0 | 0.00 | 0.18 | 0.18 | 71 | 1020.4 |
| 20260831152533 | 75 | 78 | 1.0 | 5.0 | 0.00 | 0.18 | 0.18 | 71 | 1020.5 |
| 20260831152236 | 75 | 256 | 0.0 | 3.0 | 0.00 | 0.18 | 0.18 | 71 | 1020.4 |
| 20260831151937 | 75 | 182 | 1.0 | 3.0 | 0.00 | 0.18 | 0.18 | 71 | 1020.5 |
| 20260831151631 | 75 | 69 | 0.0 | 3.0 | 0.00 | 0.18 | 0.18 | 72 | 1020.5 |
| 20260831150907 | 74 | 179 | 0.0 | 3.0 | 0.00 | 0.18 | 0.18 | 72 | 1020.6 |
| 20260831150142 | 74 | 155 | 0.0 | 3.0 | 0.00 | 0.18 | 0.18 | 72 | 1020.7 |
| 20260831145833 | 74 | 223 | 0.0 | 7.0 | 0.00 | 0.18 | 0.18 | 73 | 1020.8 |
| 20260831145522 | 73 | 140 | 0.0 | 7.0 | 0.00 | 0.18 | 0.18 | 73 | 1020.7 |
| 20260831145225 | 73 | 0 | 0.0 | 7.0 | 0.00 | 0.18 | 0.18 | 73 | 1020.7 |
| 20260831144914 | 73 | 76 | 0.0 | 3.0 | 0.00 | 0.18 | 0.18 | 73 | 1020.6 |
| 20260831144611 | 73 | 58 | 0.0 | 3.0 | 0.00 | 0.18 | 0.18 | 73 | 1020.8 |
| 20260831143833 | 73 | 128 | 1.0 | 2.0 | 0.00 | 0.18 | 0.18 | 73 | 1020.6 |
| 20260831143119 | 73 | 109 | 0.0 | 3.0 | 0.00 | 0.18 | 0.18 | 75 | 1020.8 |
| 20260831142812 | 73 | 66 | 0.0 | 0.0 | 0.00 | 0.18 | 0.18 | 77 | 1020.7 |
| 20260831142049 | 72 | 103 | 0.0 | 3.0 | 0.00 | 0.18 | 0.18 | 77 | 1020.9 |
| 20260831141750 | 72 | 107 | 0.0 | 3.0 | 0.00 | 0.18 | 0.18 | 77 | 1021.0 |
| 20260831141033 | 72 | 80 | 0.0 | 1.0 | 0.00 | 0.18 | 0.18 | 77 | 1021.0 |
| 20260831140734 | 72 | 109 | 0.0 | 0.0 | 0.00 | 0.18 | 0.18 | 77 | 1021.0 |
| 20260831140427 | 72 | 109 | 0.0 | 0.0 | 0.00 | 0.18 | 0.18 | 78 | 1021.0 |
| 20260831135656 | 72 | 227 | 0.0 | 0.0 | 0.00 | 0.18 | 0.18 | 78 | 1021.1 |
| 20260831135352 | 72 | 224 | 0.0 | 0.0 | 0.00 | 0.18 | 0.18 | 78 | 1021.0 |
| 20260831135039 | 72 | 104 | 0.0 | 0.0 | 0.00 | 0.18 | 0.18 | 78 | 1021.1 |
| 20260831134302 | 72 | 180 | 0.0 | 0.0 | 0.00 | 0.18 | 0.18 | 78 | 1021.0 |
| 20260831133956 | 72 | 179 | 0.0 | 0.0 | 0.00 | 0.18 | 0.18 | 78 | 1021.0 |
| 20260831133656 | 71 | 179 | 0.0 | 0.0 | 0.00 | 0.18 | 0.18 | 78 | 1021.0 |
| 20260831133343 | 71 | 179 | 0.0 | 0.0 | 0.00 | 0.18 | 0.18 | 78 | 1021.0 |
| 20260831133032 | 71 | 179 | 0.0 | 0.0 | 0.00 | 0.18 | 0.18 | 78 | 1021.1 |
| 20260831132725 | 71 | 185 | 0.0 | 0.0 | 0.00 | 0.18 | 0.18 | 78 | 1021.1 |
| 20260831132428 | 71 | 302 | 0.0 | 0.0 | 0.00 | 0.18 | 0.18 | 78 | 1021.1 |
| 20260831132127 | 71 | 109 | 0.0 | 0.0 | 0.00 | 0.18 | 0.18 | 78 | 1021.1 |
| 20260831131409 | 71 | 355 | 0.0 | 0.0 | 0.00 | 0.18 | 0.18 | 78 | 1021.0 |
| 20260831130643 | 71 | 355 | 0.0 | 0.0 | 0.00 | 0.18 | 0.18 | 78 | 1020.9 |
| 20260831130343 | 71 | 294 | 0.0 | 0.0 | 0.00 | 0.18 | 0.18 | 78 | 1020.9 |
| 20260831130046 | 71 | 294 | 0.0 | 0.0 | 0.00 | 0.18 | 0.18 | 78 | 1020.8 |
| 20260831125736 | 71 | 294 | 0.0 | 0.0 | 0.00 | 0.18 | 0.18 | 78 | 1020.8 |
| 20260831125000 | 71 | 294 | 0.0 | 0.0 | 0.00 | 0.18 | 0.18 | 78 | 1020.9 |
| 20260831124700 | 71 | 294 | 0.0 | 0.0 | 0.00 | 0.18 | 0.18 | 78 | 1020.9 |
| 20260831123937 | 71 | 294 | 0.0 | 0.0 | 0.00 | 0.18 | 0.18 | 78 | 1021.0 |
| 20260831123626 | 70 | 294 | 0.0 | 0.0 | 0.00 | 0.18 | 0.18 | 78 | 1020.8 |
| 20260831123329 | 70 | 294 | 0.0 | 0.0 | 0.00 | 0.18 | 0.18 | 78 | 1020.8 |
| 20260831123033 | 70 | 294 | 0.0 | 0.0 | 0.00 | 0.18 | 0.18 | 78 | 1020.8 |
| 20260831122728 | 70 | 294 | 0.0 | 0.0 | 0.00 | 0.18 | 0.18 | 78 | 1020.8 |
| 20260831122429 | 70 | 294 | 0.0 | 0.0 | 0.00 | 0.18 | 0.18 | 78 | 1020.8 |
| 20260831122118 | 70 | 294 | 0.0 | 0.0 | 0.00 | 0.18 | 0.18 | 77 | 1020.8 |
| 20260831121810 | 70 | 294 | 0.0 | 0.0 | 0.00 | 0.18 | 0.18 | 77 | 1020.8 |
| 20260831121457 | 70 | 294 | 0.0 | 0.0 | 0.00 | 0.18 | 0.18 | 77 | 1020.8 |
| 20260831121145 | 70 | 294 | 0.0 | 0.0 | 0.00 | 0.18 | 0.18 | 77 | 1020.8 |
| 20260831120837 | 70 | 294 | 0.0 | 0.0 | 0.00 | 0.18 | 0.18 | 77 | 1020.7 |
| 20260831120534 | 70 | 295 | 0.0 | 0.0 | 0.00 | 0.18 | 0.18 | 77 | 1020.7 |
| 20260831120238 | 70 | 295 | 0.0 | 0.0 | 0.00 | 0.18 | 0.18 | 77 | 1020.7 |
| 20260831115942 | 70 | 316 | 0.0 | 0.0 | 0.00 | 0.18 | 0.18 | 77 | 1020.7 |